Location: Hawks Ness
(60.2333°N, 1.1667°W)
Time: 03:58:35
(UTC+00:00)

Cosmos 44 Rocket - Pass Details

Date: 22 October 2019
Orbit: 657 x 733 km, 65.1° (Epoch: 17 November)

Event Time Altitude Azimuth Distance (km) Brightness Sun altitude
Exits shadow 04:00:24 39° 182° (S) 1,003 3.9 -22.8°
Drops below altitude 10° 04:03:41 10° 152° (SSE) 2,074 5.8 -22.4°
Sets 04:06:01 0° 147° (SSE) 2,981 6.8 -22.1°
